Location: Dappach
(48.9767°N, 9.6998°E)
Time: 21:16:24
(UTC+00:00)

COSMOS 2428 - Pass Details

Date: 21 August 2024
Orbit: 842 x 857 km, 70.9° (Epoch: 09 September)

Event Time Altitude Azimuth Distance (km) Brightness Sun altitude
Exits shadow 23:44:51 68° 305° (NW) 915 2.8 -29.2°
Drops below altitude 10° 23:50:31 10° 25° (NNE) 2,494 6.0 -29.1°
Sets 23:53:00 0° 28° (NNE) 3,436 6.9 -29.0°
